Regional Weather Roundup
Issued by NWS

Home | Current Version | Previous Version | Text Only | Print | Product List | Glossary On
Versions: 1 2 3 4 5 6 7 8 9 10 11 12 13 14 15 16 17 18 19 20 21 22 23 24 25 26 27 28 29 30 31 32 33 34 35 36 37 38 39 40 41 42 43 44 45 46 47 48 49 50
000
ASUS44 KFWD 290415
RWRTX
NORTH TEXAS HOURLY WEATHER ROUNDUP
NATIONAL WEATHER SERVICE FORT WORTH TX
1100 PM CDT SUN AUG 28 2016

NOTE: "FAIR" INDICATES FEW OR NO CLOUDS BELOW 12,000 FEET WITH NO
SIGNIFICANT WEATHER AND/OR OBSTRUCTIONS TO VISIBILITY.

TXZ118-119-290500-
DALLAS/FORT WORTH METROPLEX

CITY           SKY/WX    TMP DP  RH WIND       PRES   REMARKS
DFW AIRPORT    PTCLDY    81  70  69 CALM      30.03R
DALLAS LOVE    PTCLDY    81  70  69 SE13      30.04R
FTW MEACHAM    CLEAR     81  69  67 SE10      30.04R
DAL-EXECUTIVE  PTCLDY    76  73  91 SE6       30.04S
FTW-ALLIANCE   PTCLDY    80  69  69 SE3       30.04R
FTW-NAS-JRB    CLEAR     81  68  64 S8        30.04R
FTW-SPINKS     CLEAR     76  70  82 CALM      30.06S
ARLINGTON      PTCLDY    78  70  76 SE6       30.03F
GRAND PRAIRIE  PTCLDY    77  70  78 CALM      30.05S
ADDISON        CLEAR     81  70  69 E6        30.06S
MESQUITE       CLEAR     74  70  87 SE3       30.05R
LANCASTER      MOCLDY    75  73  91 CALM      30.06R FOG
$$

TXZ091>094-102>105-117-120-121-131>134-290500-
NORTH CENTRAL TEXAS

CITY           SKY/WX    TMP DP  RH WIND       PRES   REMARKS
SHRMAN/DENISON CLEAR     76  71  84 E5        30.07S
GAINESVILLE      N/A     75  67  75 E3        30.09R
BOWIE          CLEAR     76  67  75 CALM      30.07S
BRIDGEPORT     CLEAR     74  69  86 CALM      30.08R
DECATUR        CLEAR     75  66  75 CALM      30.07S
DENTON         CLEAR     80  70  71 E3        30.04R
MCKINNEY       CLEAR     74  72  93 E5        30.05R
GREENVILLE     MOCLDY    75  70  83 E3        30.06R
ROCKWALL       CLEAR     78  72  82 CALM      30.04R
TERRELL        CLOUDY    76  71  85 CALM      30.05R
WAXAHACHIE     PTCLDY    73  73 100 CALM      30.05S
CLEBURNE       PTCLDY    77  73  88 E7        30.07R
GRANBURY       PTCLDY    80  69  69 CALM      30.06S
$$

TXZ083>090-098>101-113>116-127>130-139>142-154-155-290500-
WESTERN NORTH TEXAS

CITY           SKY/WX    TMP DP  RH WIND       PRES   REMARKS
WICHITA FALLS  CLEAR     74  66  76 SE7       30.07R
WF-KICKAPOO    CLEAR     78  68  69 E10       30.09R
VERNON         PTCLDY    79  64  59 SE7       30.09R
ABILENE        CLEAR     75  69  81 E8        30.10R
ABILENE-DYESS  CLEAR     77  69  74 SE8       30.08R
CISCO          CLEAR     75  68  78 E6        30.10R
BRECKENRIDGE   CLEAR     78  66  65 SE7       30.07S
GRAHAM         CLEAR     76  67  74 SE3       30.07R
MINERAL WELLS  CLEAR     75  67  76 CALM      30.05R
STEPHENVILLE   CLEAR     76  68  77 CALM      30.10S
COMANCHE       PTCLDY    74  69  84 E5        30.09R
BROWNWOOD      PTCLDY    73  68  83 E7        30.08R
COLEMAN        CLEAR     76  66  72 CALM      30.09R
$$

TXZ143>147-156>162-174-175-290500-
CENTRAL TEXAS

CITY           SKY/WX    TMP DP  RH WIND       PRES   REMARKS
WACO           CLOUDY    77  72  84 CALM      30.03R
WACO-MCGREGOR  PTCLDY    77  70  79 E8        30.04R
HILLSBORO      CLOUDY    72  70  93 E7        30.04R
CORSICANA      CLOUDY    75  71  87 NE3       30.06R
MEXIA          CLOUDY    73  72  98 NW6       30.04R
HEARNE         CLOUDY    75  73  95 MISG      30.03R
CAMERON        CLOUDY    76  73  90 CALM      30.03R
TEMPLE         MOCLDY    75  73  93 NE3       30.04R
KILLEEN        CLEAR     76  72  86 CALM      30.03F
KILLEEN-SKYLRK CLEAR     76  72  87 E3        30.04R
FORT HOOD      CLEAR     75  71  88 E3        30.02S
GATESVILLE     CLEAR     77  72  83 CALM      30.07S
HAMILTON       PTCLDY    76  71  82 SE5       30.07F
LAMPASAS       PTCLDY    76  74  95 CALM      30.05S
$$

TXZ095>097-106>112-122>126-135>138-148>153-164>167-290500-
EAST TEXAS

CITY           SKY/WX    TMP DP  RH WIND       PRES   REMARKS
PARIS          CLOUDY    73  70  88 N6        30.07R
SULPHUR SPRNGS CLEAR     74  73  93 CALM      30.08R
MOUNT PLEASANT PTCLDY    74  74 100 NE3       30.07R
GILMER         CLOUDY    74  72  93 CALM      30.05R
TYLER          CLOUDY    76  71  85 CALM      30.04R
LONGVIEW       MOCLDY    73  73 100 CALM      30.03R
MARSHALL       PTCLDY    70  68  93 CALM      30.06R
ATHENS         MOCLDY    72  72 100 CALM      30.03R
PALESTINE      CLOUDY    73  73 100 CALM      30.04S
JACKSONVILLE   FOG       73  73 100 CALM      30.07R VSB 1/2
HENDERSON      MOCLDY    72  72 100 CALM      30.05R
CENTER         PTCLDY    74  73  96 CALM      30.04R
NACOGDOCHES    CLOUDY   N/A N/A N/A N3        30.01R
LUFKIN         CLOUDY    72  71  97 CALM      30.01R
$$

SUPPLEMENTAL OBSERVATIONS (CENTRAL)

CITY           SKY/WX    TMP DP  RH WIND       PRES   REMARKS
DENISON DAM      N/A     75  68  78 NE2         N/A
CADDO GRASSLND   N/A     73  68  83 N1          N/A
PAT MAYSE LAKE   N/A     73  72  94 N2          N/A
GREENVILLE       N/A     75  70  83 NE3         N/A
CEDAR HILL       N/A     75  72  88 SE3         N/A
ATHENS           N/A     73  70  88 N1          N/A
MCGREGOR         N/A     75  72  88 E3          N/A
$$

SUPPLEMENTAL OBSERVATIONS (WEST)

CITY           SKY/WX    TMP DP  RH WIND       PRES   REMARKS
MILLERS CREEK    N/A     79  68  69 E6          N/A
LBJ GRASSLAND    N/A     75  66  73 NE2         N/A
HAMBY            N/A     73  66  78 SE5         N/A
IVIE RESERVOIR   N/A     77  66  69 E7          N/A
COLORADO BEND    N/A     73  68  83 S2          N/A
$$

SUPPLEMENTAL OBSERVATIONS (EAST)

CITY           SKY/WX    TMP DP  RH WIND       PRES   REMARKS
CLARKSVILLE      N/A     73  72  94 NE1         N/A
TEXARKANA        N/A     75  73  94 N1          N/A
LINDEN           N/A     73  70  88 CALM        N/A
CADDO LAKE       N/A     72  66  83 CALM        N/A
GILMER           N/A     75  70  83 CALM        N/A
HENDERSON        N/A     72  68  88 CALM        N/A
N SABINE NF      N/A     72  70  94 MISG        N/A
S SABINE NF      N/A     73  72  94 N2          N/A
$$

SUPPLEMENTAL OBSERVATIONS ARE A COLLECTION OF AUTOMATED INSTRUMENTS
THAT ARE MAINTAINED BY A VARIETY OF FEDERAL AND STATE AGENCIES.
CERTAIN ELEMENTS...SUCH AS HUMIDITY VALUES AND SUSTAINED WIND
SPEEDS...MAY BE APPROXIMATED.




USA.gov is the U.S. government's official web portal to all federal, state and local government web resources and services.